Regional Weather Roundup
Issued by NWS

Home | Current Version | Previous Version | Graphics & Text | Print | Product List | Glossary On
Versions: 1 2 3 4 5 6 7 8 9 10 11 12 13 14 15 16 17 18 19 20 21 22 23 24 25 26 27 28 29 30 31 32 33 34 35 36 37 38 39 40 41 42 43 44 45 46 47 48 49 50
296
ASUS45 KSLC 190810
RWRUT

UTAH REGIONAL WEATHER ROUNDUP
NATIONAL WEATHER SERVICE SALT LAKE CITY UT
100 AM MST MON FEB 19 2018

UTZ001>011-023>025-190900-

NORTHERN UTAH

CITY           SKY/WX    TMP DP  RH WIND       PRES   REMARKS
BRIGHAM CITY   CLOUDY    27  25  91 SW3       29.51S
HILL AFB       LGT SNOW  28  27  93 N5        29.49R WCI  23
LOGAN          FLURRIES  28  24  85 CALM      29.50S
OGDEN          CLOUDY    29  26  89 CALM      29.49R
SALT LAKE CITY LGT SNOW  32  30  92 NW12      29.50R VSB 3/4 WCI  23
TOOELE VALLEY  LGT SNOW  30  30 100 CALM      29.51S
WENDOVER       LGT SNOW  27  22  81 NW8       29.54F WCI  19
HEBER CITY     LGT SNOW  27  27 100 N12       29.39F VSB 3/4 WCI  16
WEST JORDAN    CLOUDY    28  28 100 NW9       29.49R VSB 1   WCI  19

$$

UTZ011>015-024>027-190900-

CENTRAL/NORTHEAST UTAH

CITY           SKY/WX    TMP DP  RH WIND       PRES   REMARKS
PROVO AIRPORT  CLOUDY    28  28 100 NW22      29.46S WCI  15
MOAB/CANYONLAN PTCLDY   N/A N/A N/A SW13      29.40F
DELTA          CLOUDY    30  28  93 N16G23    29.44F VSB 1/2 WCI  19
PRICE          CLOUDY    42  21  43 S17G23    29.34F
RICHFIELD      MOCLDY    45  21  39 SW16      29.34F
ROOSEVELT      MOCLDY    32  18  55 NW3       29.35S
VERNAL         CLOUDY    37  19  48 NE3       29.33F

$$

UTZ013>016-019>022-027-190900-

SOUTHERN UTAH

CITY           SKY/WX    TMP DP  RH WIND       PRES   REMARKS
BRYCE CANYON   FLURRIES  35  24  64 SW33G51   29.47S WCI  21
CEDAR CITY     PTCLDY    43  25  49 S31G40    29.40F
MILFORD        PTCLDY    43  22  43 SW20G28   29.38S
ST GEORGE      CLOUDY    56  30  37 SW44G58   29.40S HAZE
HANKSVILLE     MOCLDY    50  25  37 SW20G30   29.44F
KANAB          MOCLDY    46  28  49 S14       29.55F
BLANDING         N/A     42  28  57 S20G30    29.65R

$$

REGIONAL REPORTS     COLORADO/ARIZONA

CITY           SKY/WX    TMP DP  RH WIND       PRES   REMARKS
CRAIG, CO      CLOUDY    29  23  78 CALM      29.40F
GRAND JUNCTION MOCLDY    49  26  41 S14G23    29.42S
RIFLE, CO      CLOUDY    49  25  39 S17G32    29.41F
MONTROSE, CO   CLOUDY    47  22  37 SW25G43   29.53S
CORTEZ, CO     CLOUDY    45  28  51 SW15G29   29.64F
COLORADO CITY    N/A     46  30  53 SW21G29   29.53F
PAGE, AZ       PTCLDY    54  23  30 SW15G35   29.48F
GRAND CANYON   CLOUDY    38  31  76 S23G43    29.65F WCI  27
KINGMAN, AZ    CLEAR     51  30  44 S18G29    29.65F
FLAGSTAFF, AZ  MOCLDY    36  30  79 SW31G40   29.70R WCI  23

$$

REGIONAL REPORTS    NEVADA/IDAHO/WYOMING

CITY           SKY/WX    TMP DP  RH WIND       PRES   REMARKS
LAS VEGAS, NV  CLEAR     55  29  36 SW17G26   29.54S
ELY, NY        CLOUDY    29  12  49 W8        29.45F WCI  21
ELKO, NV       LGT SNOW  23  21  92 E5        29.55R FOG     WCI  17
POCATELLO, ID  CLOUDY    26  19  74 SW14      29.53F WCI  14
BURLEY, ID     MOCLDY    17  12  80 SW9       29.55F WCI   6
EVANSTON, WY   LGT SNOW  20  18  92 NE6       29.42R VSB 3/4 WCI  12
ROCK SPRINGS,  LGT SNOW   9   4  80 E15       29.48F VSB 1   WCI  -8

$$




USA.gov is the U.S. government's official web portal to all federal, state and local government web resources and services.